N1IJV-10 Weather Reports


time (UTC)temp
F
wind
direction
speed
knots
gust
knots
rain 1hr
in
rain 24hr
in
rain mn
in
humidity
%
barometer
mb
20260506161414 54 132 1.7 5.2 0.00 0.00 0.00 50 1013.4
20260506160906 54 269 2.6 5.2 0.00 0.00 0.00 44 1013.5
20260506160402 54 108 0.9 2.6 0.00 0.00 0.00 51 1013.4
20260506155900 53 325 3.5 4.3 0.00 0.00 0.00 46 1013.5
20260506155356 54 266 2.6 6.1 0.00 0.00 0.00 48 1013.5
20260506153514 54 205 2.6 4.3 0.00 0.00 0.00 43 1013.4
20260506153011 53 39 0.9 4.3 0.00 0.00 0.00 49 1013.7
20260506152508 52 168 0.9 2.6 0.00 0.00 0.00 49 1013.6
20260506152006 52 95 1.7 4.3 0.00 0.00 0.00 47 1013.7
20260506151503 53 104 1.7 2.6 0.00 0.00 0.00 46 1013.8
20260506151001 53 155 1.7 2.6 0.00 0.00 0.00 46 1013.6
20260506150457 53 268 2.6 2.6 0.00 0.00 0.00 47 1013.6
20260506145954 53 97 0.9 2.6 0.00 0.00 0.00 46 1013.6
20260506145450 53 42 1.7 1.7 0.00 0.00 0.00 47 1013.7
20260506144948 52 66 0.9 2.6 0.00 0.00 0.00 46 1013.8
20260506144444 52 52 1.7 1.7 0.00 0.00 0.00 47 1013.6
20260506143942 53 61 1.7 2.6 0.00 0.00 0.00 49 1013.6
20260506143439 53 71 0.9 2.6 0.00 0.00 0.00 48 1013.8
20260506142938 52 22 0.9 0.9 0.00 0.00 0.00 49 1013.7
20260506142435 53 357 2.6 5.2 0.00 0.00 0.00 47 1013.8
20260506141933 53 160 1.7 5.2 0.00 0.00 0.00 46 1013.8
20260506141430 53 178 1.7 2.6 0.00 0.00 0.00 48 1013.5
20260506140929 52 100 0.9 4.3 0.00 0.00 0.00 46 1013.7
20260506140426 52 103 0.0 1.7 0.00 0.00 0.00 45 1013.7
20260506135922 51 150 0.9 1.7 0.00 0.00 0.00 49 1013.7
20260506135420 51 160 0.9 1.7 0.00 0.00 0.00 54 1013.6
20260506134915 50 152 0.9 1.7 0.00 0.00 0.00 53 1013.3
20260506134412 50 142 0.9 1.7 0.00 0.00 0.00 54 1013.3
20260506133909 50 114 0.9 1.7 0.00 0.00 0.00 57 1013.2
20260506133406 49 67 0.9 1.7 0.00 0.00 0.00 59 1013.3
20260506132902 48 109 0.0 0.9 0.00 0.00 0.00 62 1013.1
20260506132359 48 91 0.0 0.9 0.00 0.00 0.00 65 1013.1
20260506131858 48 106 0.0 0.9 0.00 0.00 0.00 65 1013.0
20260506131353 47 116 0.0 0.9 0.00 0.00 0.00 65 1013.1
20260506130851 47 122 0.0 0.9 0.00 0.00 0.00 70 1012.9
20260506130347 46 85 0.0 0.9 0.00 0.00 0.00 75 1013.0
20260506125845 46 123 0.0 0.0 0.00 0.00 0.00 75 1012.9
20260506125343 46 94 0.0 0.0 0.00 0.00 0.00 77 1012.8
20260506124841 45 127 0.0 0.0 0.00 0.00 0.00 75 1012.8
20260506124338 45 89 0.0 0.0 0.00 0.00 0.00 77 1012.8
20260506123836 45 88 0.0 0.0 0.00 0.00 0.00 78 1012.6
20260506123334 44 90 0.0 0.0 0.00 0.00 0.00 77 1012.5
20260506122831 44 90 0.0 0.0 0.00 0.00 0.00 75 1012.4
20260506122328 43 90 0.0 0.0 0.00 0.00 0.00 76 1012.6
20260506121826 43 90 0.0 0.0 0.00 0.00 0.00 77 1012.5
20260506121323 42 90 0.0 0.0 0.00 0.00 0.00 79 1012.3
20260506120820 42 91 0.0 0.0 0.00 0.00 0.00 81 1012.3
20260506120318 42 91 0.0 0.0 0.00 0.00 0.00 82 1012.3
20260506115815 41 91 0.0 0.0 0.00 0.00 0.00 84 1012.2
20260506115313 41 91 0.0 0.0 0.00 0.00 0.00 84 1011.9
20260506114810 40 91 0.0 0.0 0.00 0.00 0.00 85 1012.2
20260506114308 39 91 0.0 0.0 0.00 0.00 0.00 87 1011.9
20260506113806 39 90 0.0 0.0 0.00 0.00 0.00 88 1012.1
20260506113304 38 88 0.0 0.0 0.00 0.00 0.00 89 1011.8
20260506112800 38 87 0.0 0.0 0.00 0.00 0.00 89 1011.8
20260506112257 37 87 0.0 0.0 0.00 0.00 0.00 89 1011.9
20260506111755 37 87 0.0 0.0 0.00 0.00 0.00 89 1012.2
20260506111253 37 87 0.0 0.0 0.00 0.00 0.00 89 1011.7
20260506110750 37 87 0.0 0.0 0.00 0.00 0.00 88 1011.7
20260506110247 37 86 0.0 0.0 0.00 0.00 0.00 88 1012.1
20260506105743 37 87 0.0 0.0 0.00 0.00 0.00 87 1011.9
20260506105240 37 87 0.0 0.0 0.00 0.00 0.00 87 1011.8
20260506104738 37 86 0.0 0.0 0.00 0.00 0.00 87 1011.8
20260506104236 37 84 0.0 0.0 0.00 0.00 0.00 87 1011.6
20260506103732 37 85 0.0 0.0 0.00 0.00 0.00 87 1011.7
20260506103230 37 85 0.0 0.0 0.00 0.00 0.00 86 1011.3
20260506102728 38 85 0.0 0.0 0.00 0.00 0.00 86 1011.2
20260506102225 38 84 0.0 0.0 0.00 0.00 0.00 86 1011.0
20260506101722 38 84 0.0 0.0 0.00 0.00 0.00 85 1011.0
20260506101219 38 84 0.0 0.0 0.00 0.00 0.00 84 1010.9
20260506100717 38 84 0.0 0.0 0.00 0.00 0.00 83 1011.0
20260506100215 38 84 0.0 0.0 0.00 0.00 0.00 82 1010.8
20260506095713 38 84 0.0 0.0 0.00 0.00 0.00 83 1011.0
20260506095209 38 84 0.0 0.0 0.00 0.00 0.00 82 1011.0
20260506094706 39 84 0.0 0.0 0.00 0.00 0.00 82 1010.8
20260506094204 39 84 0.0 0.0 0.00 0.00 0.00 81 1010.9
20260506093703 39 84 0.0 0.0 0.00 0.00 0.00 80 1011.3
20260506093159 39 84 0.0 0.0 0.00 0.00 0.00 81 1011.1
20260506092657 39 84 0.0 0.0 0.00 0.00 0.00 81 1011.0
20260506092154 40 82 0.0 0.0 0.00 0.00 0.00 82 1011.1
20260506091652 40 77 0.0 0.0 0.00 0.00 0.00 82 1011.0
20260506091149 40 75 0.0 0.0 0.00 0.00 0.00 82 1011.0
20260506090647 40 75 0.0 0.0 0.00 0.00 0.00 82 1010.9
20260506090143 40 75 0.0 0.0 0.00 0.00 0.00 79 1011.0
20260506085640 39 75 0.0 0.0 0.00 0.00 0.00 79 1011.0
20260506085136 39 75 0.0 0.0 0.00 0.00 0.00 79 1011.1
20260506084633 39 75 0.0 0.0 0.00 0.00 0.00 80 1011.1
20260506084130 40 75 0.0 0.0 0.00 0.00 0.00 79 1011.0
20260506083627 40 75 0.0 0.0 0.00 0.00 0.00 77 1010.9
20260506083125 40 75 0.0 0.0 0.00 0.00 0.00 76 1010.8
20260506082621 39 75 0.0 0.0 0.00 0.00 0.00 78 1010.8
20260506082117 40 75 0.0 0.0 0.00 0.00 0.00 78 1010.7
20260506081615 40 75 0.0 0.0 0.00 0.00 0.00 77 1010.6
20260506081113 40 75 0.0 0.0 0.00 0.00 0.00 76 1010.8
20260506080610 40 75 0.0 0.0 0.00 0.00 0.00 75 1010.7
20260506080107 41 75 0.0 0.0 0.00 0.00 0.00 74 1010.8
20260506073050 43 61 0.0 0.0 0.00 0.00 0.00 69 1010.6
20260506072547 43 60 0.9 0.9 0.00 0.00 0.00 67 1010.4
20260506072045 44 80 0.0 0.9 0.00 0.00 0.00 64 1010.2
20260506071543 44 73 0.0 0.9 0.00 0.00 0.00 61 1010.3
20260506071040 43 81 0.0 0.9 0.00 0.00 0.00 64 1010.5
20260506070537 43 79 0.0 0.0 0.00 0.00 0.00 67 1010.5
20260506062514 47 78 0.0 0.0 0.00 0.00 0.00 59 1010.4
20260506062011 47 73 0.0 0.9 0.00 0.00 0.00 58 1010.4
20260506061507 47 80 0.9 1.7 0.00 0.00 0.00 56 1010.4
20260506061005 47 87 0.0 0.9 0.00 0.00 0.00 56 1010.3
20260506060503 45 58 0.9 1.7 0.00 0.00 0.00 61 1010.3
20260506050932 49 75 0.9 0.9 0.00 0.00 0.00 56 1009.9
20260506050430 49 83 0.0 0.0 0.00 0.00 0.00 56 1009.9
20260506044920 50 80 0.0 0.9 0.00 0.08 0.08 53 1009.7
20260506044418 50 88 0.0 0.0 0.00 0.08 0.08 56 1009.7
20260506043915 50 72 0.9 0.9 0.00 0.08 0.08 52 1009.8
20260506043412 50 85 0.0 0.9 0.00 0.08 0.08 57 1009.9
20260506042910 50 85 0.0 0.9 0.00 0.08 0.08 58 1009.7
20260506042409 50 73 0.9 2.6 0.00 0.08 0.08 56 1010.0
20260506041907 51 84 0.0 0.9 0.00 0.08 0.08 54 1009.9
20260506041404 50 84 0.9 2.6 0.00 0.08 0.08 54 1010.0
20260506040901 51 84 0.0 0.9 0.00 0.08 0.08 54 1010.1
20260506040358 51 30 0.9 0.9 0.00 0.08 0.08 54 1010.0
20260506035854 51 95 0.0 0.9 0.00 0.08 0.08 55 1010.1
20260506035352 51 105 0.0 2.6 0.00 0.08 0.08 55 1010.1
20260506034849 50 84 0.0 0.9 0.00 0.08 0.08 57 1010.0
20260506034346 50 89 0.0 0.0 0.00 0.08 0.08 62 1009.7
20260506033843 49 93 0.0 0.0 0.00 0.08 0.08 65 1009.8
20260506033340 49 96 0.0 0.0 0.00 0.08 0.08 67 1009.9
20260506032837 49 101 0.0 0.0 0.00 0.08 0.08 65 1009.9
20260506032333 49 100 0.0 0.0 0.00 0.08 0.08 63 1009.5
20260506031831 49 96 0.0 0.0 0.00 0.08 0.08 62 1009.5
20260506031328 49 96 0.0 0.0 0.00 0.08 0.08 63 1009.3
20260506030825 49 96 0.0 0.0 0.00 0.08 0.08 64 1009.3
20260506030323 49 96 0.0 0.0 0.00 0.08 0.08 62 1009.4
20260506025820 49 96 0.0 0.0 0.00 0.08 0.08 63 1009.3
20260506025316 50 96 0.0 0.0 0.00 0.08 0.08 65 1009.3
20260506024813 50 96 0.0 0.0 0.00 0.08 0.08 62 1009.3
20260506024310 50 96 0.0 0.0 0.00 0.08 0.08 62 1009.3
20260506023806 50 95 0.0 0.0 0.00 0.08 0.08 64 1009.2
20260506023303 50 97 0.0 0.0 0.00 0.08 0.08 63 1009.3
20260506022800 50 97 0.0 0.0 0.00 0.08 0.08 63 1009.7
20260506022258 50 111 0.0 0.0 0.00 0.08 0.08 61 1009.4
20260506021756 50 97 0.0 0.0 0.00 0.08 0.08 60 1009.2
20260506021252 50 97 0.0 0.0 0.00 0.08 0.08 60 1009.0
20260506020749 50 97 0.0 0.0 0.00 0.08 0.08 62 1009.1
20260506020247 50 101 0.0 0.0 0.00 0.08 0.08 63 1009.0
20260506015744 50 101 0.0 0.0 0.00 0.08 0.08 60 1009.1
20260506015242 50 91 0.0 0.0 0.00 0.08 0.08 62 1008.7
20260506014738 50 90 0.0 0.0 0.00 0.08 0.08 60 1008.4
20260506014235 51 89 0.0 0.0 0.00 0.08 0.08 60 1008.4
20260506013732 51 88 0.0 0.0 0.00 0.08 0.08 62 1008.6
20260506013229 51 104 0.0 0.0 0.00 0.08 0.08 58 1008.6
20260506012725 51 99 0.0 0.0 0.00 0.08 0.08 57 1008.6
20260506012223 52 88 0.0 0.0 0.00 0.08 0.08 58 1008.3
20260506011720 52 86 0.0 0.0 0.00 0.08 0.08 58 1008.2
20260506011216 52 84 0.0 0.9 0.00 0.08 0.08 57 1008.2
20260506010715 52 86 0.0 0.9 0.00 0.08 0.08 55 1008.2
20260506010211 52 87 0.0 0.0 0.00 0.08 0.08 55 1008.4
20260506005709 52 80 0.0 0.9 0.00 0.08 0.08 56 1008.1
20260506005205 53 87 0.0 0.9 0.00 0.08 0.08 54 1008.2
20260506004701 53 83 0.0 0.9 0.00 0.08 0.08 50 1008.1
20260506004159 53 129 0.9 0.9 0.00 0.08 0.08 50 1008.0
20260506003655 53 80 0.0 0.9 0.00 0.08 0.08 49 1007.9
20260506003151 53 87 0.9 1.7 0.00 0.08 0.08 48 1007.9
20260506002647 53 54 0.9 1.7 0.00 0.08 0.08 49 1007.6
20260506002143 53 86 0.9 1.7 0.00 0.08 0.08 47 1007.8
20260506001639 53 74 0.9 0.9 0.00 0.08 0.08 46 1007.7
20260506001137 54 98 0.0 0.9 0.00 0.08 0.08 49 1007.8
20260506000634 54 46 0.9 4.3 0.00 0.08 0.08 47 1008.1
20260506000131 54 46 0.9 2.6 0.00 0.08 0.08 48 1007.8
20260505235629 54 71 0.9 2.6 0.00 0.08 0.08 47 1007.8
20260505235126 54 66 0.9 1.7 0.00 0.08 0.08 50 1007.7
20260505234617 54 58 0.9 1.7 0.00 0.08 0.08 47 1007.9
20260505234114 54 70 0.9 1.7 0.00 0.08 0.08 46 1007.6
20260505233612 54 136 0.0 1.7 0.00 0.08 0.08 49 1007.8
20260505233109 54 71 0.9 2.6 0.00 0.08 0.08 45 1007.8
20260505232607 54 261 1.7 2.6 0.00 0.08 0.08 47 1008.0
20260505232104 54 32 0.9 2.6 0.00 0.08 0.08 44 1008.0
20260505231601 55 28 1.7 1.7 0.00 0.08 0.08 46 1008.1
20260505231059 55 115 0.9 1.7 0.00 0.08 0.08 43 1007.9
20260505230557 55 75 0.0 1.7 0.00 0.08 0.08 41 1007.8
20260505230053 55 353 2.6 2.6 0.00 0.08 0.08 42 1008.2
20260505225550 55 54 1.7 1.7 0.00 0.08 0.08 48 1007.9
20260505225046 55 56 0.9 1.7 0.00 0.08 0.08 44 1008.1
20260505224543 55 264 2.6 2.6 0.00 0.08 0.08 45 1008.1
20260505224040 55 80 1.7 4.3 0.00 0.08 0.08 44 1008.5
20260505223537 55 9 0.9 4.3 0.00 0.08 0.08 46 1008.2
20260505223033 55 55 1.7 2.6 0.00 0.08 0.08 42 1008.2
20260505222530 55 289 1.7 2.6 0.00 0.08 0.08 42 1008.3
20260505222026 55 297 2.6 2.6 0.00 0.08 0.08 42 1008.3
20260505221523 56 260 1.7 2.6 0.00 0.08 0.08 48 1008.4
20260505221020 56 348 2.6 4.3 0.00 0.08 0.08 43 1008.1
20260505220517 56 26 0.9 1.7 0.00 0.08 0.08 44 1008.3
20260505220015 55 277 1.7 4.3 0.00 0.08 0.08 40 1008.3
20260505215513 55 187 0.9 1.7 0.00 0.08 0.08 42 1008.6
20260505215010 55 76 0.9 1.7 0.00 0.08 0.08 44 1008.6
20260505214508 55 105 0.9 2.6 0.00 0.08 0.08 44 1008.3
20260505214004 55 79 0.9 1.7 0.00 0.08 0.08 46 1008.5
20260505213503 55 277 1.7 1.7 0.00 0.08 0.08 47 1008.4
20260505212958 55 267 2.6 2.6 0.00 0.08 0.08 40 1008.3
20260505212455 56 315 0.9 4.3 0.00 0.08 0.08 45 1008.3
20260505211952 56 310 1.7 2.6 0.00 0.08 0.08 42 1008.6
20260505211449 55 167 0.9 4.3 0.00 0.08 0.08 40 1008.4
20260505210945 55 71 1.7 4.3 0.00 0.08 0.08 42 1008.5
20260505210443 55 132 0.9 4.3 0.00 0.08 0.08 42 1008.4
20260505205939 55 275 2.6 2.6 0.00 0.08 0.08 40 1008.3
20260505205438 55 254 2.6 2.6 0.00 0.08 0.08 42 1008.4
20260505204934 55 78 1.7 2.6 0.00 0.08 0.08 44 1008.4
20260505204432 55 293 2.6 2.6 0.00 0.08 0.08 45 1008.4
20260505203929 55 258 1.7 4.3 0.00 0.08 0.08 42 1008.5
20260505203426 55 261 3.5 4.3 0.00 0.08 0.08 40 1008.7
20260505202922 55 77 2.6 2.6 0.00 0.08 0.08 42 1008.5
20260505202418 55 3 4.3 5.2 0.00 0.08 0.08 39 1008.4
20260505201915 55 233 1.7 4.3 0.00 0.08 0.08 42 1008.7
20260505201412 55 157 1.7 4.3 0.00 0.08 0.08 42 1008.6
20260505200910 55 307 1.7 2.6 0.00 0.08 0.08 41 1008.6
20260505200407 55 40 2.6 5.2 0.00 0.08 0.08 44 1008.7
20260505195902 55 228 2.6 2.6 0.00 0.08 0.08 42 1008.8
20260505195400 56 78 0.9 2.6 0.00 0.08 0.08 46 1008.6
20260505194857 55 85 0.9 0.9 0.00 0.08 0.08 43 1008.8
20260505194355 55 5 1.7 4.3 0.00 0.08 0.08 40 1008.7
20260505193855 55 354 0.9 4.3 0.00 0.08 0.08 41 1008.5
20260505193353 56 70 1.7 1.7 0.00 0.08 0.08 40 1008.7
20260505192850 55 136 0.9 1.7 0.00 0.08 0.08 42 1008.8
20260505192348 55 5 0.9 1.7 0.00 0.08 0.08 40 1008.8
20260505191845 56 338 2.6 2.6 0.00 0.08 0.08 41 1008.7
20260505191344 56 48 0.9 1.7 0.00 0.08 0.08 48 1008.9
20260505190840 56 93 0.9 2.6 0.00 0.08 0.08 42 1008.9
20260505190336 55 298 1.7 1.7 0.00 0.08 0.08 44 1008.9
20260505185832 55 64 0.9 1.7 0.00 0.08 0.08 47 1009.0
20260505185328 56 18 4.3 5.2 0.00 0.08 0.08 44 1008.9
20260505184824 55 83 0.9 1.7 0.00 0.08 0.08 46 1008.9
20260505184322 55 144 0.9 4.3 0.00 0.08 0.08 44 1009.0
20260505183819 56 4 0.9 5.2 0.00 0.08 0.08 48 1008.8
20260505183316 56 308 1.7 4.3 0.00 0.08 0.08 47 1009.1
20260505182812 56 69 0.9 5.2 0.00 0.08 0.08 45 1008.9
20260505182309 55 42 1.7 2.6 0.00 0.08 0.08 42 1008.9
20260505181806 56 91 1.7 4.3 0.00 0.08 0.08 45 1008.8
20260505181303 57 59 0.9 1.7 0.00 0.08 0.08 45 1008.7
20260505180800 56 40 0.9 2.6 0.00 0.08 0.08 46 1008.9
20260505180256 56 29 1.7 2.6 0.00 0.08 0.08 44 1008.8
20260505175752 56 7 6.1 7.0 0.00 0.08 0.08 44 1008.8
20260505175249 56 269 4.3 6.1 0.00 0.08 0.08 44 1008.8
20260505174746 56 65 1.7 4.3 0.00 0.08 0.08 47 1008.9
20260505174243 56 264 2.6 4.3 0.00 0.08 0.08 44 1008.7
20260505173739 56 21 3.5 4.3 0.00 0.08 0.08 43 1008.4
20260505173236 56 341 3.5 4.3 0.00 0.08 0.08 44 1008.6
20260505172733 57 174 2.6 4.3 0.00 0.08 0.08 43 1008.8
20260505172230 56 80 0.9 5.2 0.00 0.08 0.08 47 1008.7
20260505171729 57 11 2.6 4.3 0.00 0.08 0.08 48 1008.6
20260505171227 56 85 1.7 2.6 0.00 0.08 0.08 45 1008.4
20260505170723 57 292 2.6 4.3 0.00 0.08 0.08 41 1008.3
20260505170220 57 22 2.6 4.3 0.00 0.08 0.08 45 1008.5
20260505165716 57 268 3.5 4.3 0.00 0.08 0.08 45 1008.3
20260505165212 58 195 0.9 1.7 0.00 0.08 0.08 43 1008.3
20260505164707 57 327 2.6 4.3 0.00 0.08 0.08 43 1008.2
20260505164205 57 169 1.7 4.3 0.00 0.08 0.08 42 1008.2
20260505163703 57 20 2.6 4.3 0.00 0.08 0.08 42 1008.3
20260505163201 57 76 1.7 6.1 0.00 0.08 0.08 44 1008.4
20260505162658 56 3 0.9 4.3 0.00 0.08 0.08 44 1008.6
20260505162155 57 26 1.7 5.2 0.00 0.08 0.08 47 1008.5
20260505161652 55 26 2.6 4.3 0.00 0.08 0.08 47 1008.6